This is the latest recevied weather packets stored in our database for station/object AC0MR. If no packets are shown the sender has not sent any weather packets the latest 1 day(s).
| Time | Temp. | Humidity | Pressure | Rain* | Wind** | Luminosity | Snow |
|---|---|---|---|---|---|---|---|
| 1778093119 | 10.56° C | 41% | 1016.1 hPa | 0 mm | - | 436 W/m² | - |
| 1778092519 | 10.56° C | 43% | 1016 hPa | 0 mm | - | 551 W/m² | - |
| 1778091919 | 10.56° C | 43% | 1016.1 hPa | 0 mm | - | 429 W/m² | - |
| 1778091319 | 10.56° C | 42% | 1016.1 hPa | 0 mm | - | 476 W/m² | - |
| 1778090719 | 10° C | 44% | 1016.3 hPa | 0 mm | - | 529 W/m² | - |
| 1778090119 | 10° C | 43% | 1016.3 hPa | 0 mm | - | 448 W/m² | - |
| 1778089519 | 10° C | 44% | 1016.2 hPa | 0 mm | - | 440 W/m² | - |
| 1778085919 | 10° C | 44% | 1016.3 hPa | 0 mm | - | 459 W/m² | - |
| 1778085319 | 10.56° C | 41% | 1016.4 hPa | 0 mm | - | 506 W/m² | - |
| 1778081119 | 9.44° C | 49% | 1016.4 hPa | 0 mm | - | 730 W/m² | - |
| 1778073318 | 5.56° C | 61% | 1015.6 hPa | 0 mm | - | 292 W/m² | - |
| 1778072118 | 5° C | 61% | 1015.5 hPa | 0 mm | - | 132 W/m² | - |
| 1778069118 | 3.89° C | 64% | 1014.9 hPa | 0 mm | - | 80 W/m² | - |
| 1778067918 | 3.33° C | 64% | 1014.6 hPa | 0 mm | - | 59 W/m² | - |
| 1778066718 | 3.33° C | 65% | 1013.9 hPa | 0 mm | - | 33 W/m² | - |
| 1778065518 | 3.33° C | 65% | 1013.6 hPa | 0 mm | - | 8 W/m² | - |
| 1778064318 | 3.33° C | 65% | 1013.6 hPa | 0 mm | - | 0 W/m² | - |
| 1778063718 | 3.33° C | 65% | 1013.5 hPa | 0 mm | - | 0 W/m² | - |
| 1778063118 | 3.33° C | 64% | 1013.5 hPa | 0 mm | - | 0 W/m² | - |
| 1778062518 | 3.89° C | 64% | 1013.5 hPa | 0 mm | - | 0 W/m² | - |
| 1778061918 | 3.89° C | 64% | 1013.5 hPa | 0 mm | - | 0 W/m² | - |
| 1778061318 | 3.89° C | 64% | 1013.5 hPa | 0 mm | - | 0 W/m² | - |
| 1778060718 | 3.89° C | 64% | 1013.3 hPa | 0 mm | - | 0 W/m² | - |
| 1778059518 | 3.89° C | 65% | 1013.2 hPa | 0 mm | - | 0 W/m² | - |
| 1778058918 | 3.89° C | 65% | 1013.2 hPa | 0 mm | - | 0 W/m² | - |
* Rain latest hour (hover to see other rain measurements)
** Current wind speed in m/s (hover to see current wind gust speed)